Regional Weather Roundup
Issued by NWS

Home | Current Version | Previous Version | Text Only | Print | Product List | Glossary On
Versions: 1 2 3 4 5 6 7 8 9 10 11 12 13 14 15 16 17 18 19 20 21 22 23 24 25 26 27 28 29 30 31 32 33 34 35 36 37 38 39 40 41 42 43 44 45 46 47 48 49 50
000
ASUS43 KBIS 310010
RWRND

NORTH DAKOTA REGIONAL WEATHER ROUNDUP
NATIONAL WEATHER SERVICE BISMARCK ND
700 PM CDT TUE AUG 30 2016

NOTE: "FAIR" INDICATES FEW OR NO CLOUDS BELOW 12,000 FEET WITH NO
SIGNIFICANT WEATHER AND/OR OBSTRUCTIONS TO VISIBILITY.


NDZ001>003-009>011-017-310100-
NORTHWEST NORTH DAKOTA

CITY           SKY/WX    TMP DP  RH WIND       PRES   REMARKS
WILLISTON      CLOUDY    82  51  34 SE12      30.13S
6HR MIN TEMP:  80; 6HR MAX TEMP:  86;

MINOT          PTSUNNY   82  47  29 E9        30.17S
MINOT AFB      MOSUNNY   80  46  30 SE9       30.16F
$$

NDZ018>021-031>035-040>046-310100-
SOUTHWEST NORTH DAKOTA

CITY           SKY/WX    TMP DP  RH WIND       PRES   REMARKS
BISMARCK       SUNNY     81  51  35 SE7       30.17R
6HR MIN TEMP:  79; 6HR MAX TEMP:  85;

DICKINSON      PTSUNNY   77  51  40 SE14      30.14F
GARRISON         N/A     79  50  36 SE8       30.16S
6HR MIN TEMP:  78; 6HR MAX TEMP:  84;

HETTINGER ARPT MOSUNNY   82  62  50 E10       30.16R
$$

NDZ004>008-012>016-024-026-027-054-310100-
NORTHEAST NORTH DAKOTA

CITY           SKY/WX    TMP DP  RH WIND       PRES   REMARKS
GRAND FORKS    MOSUNNY   79  55  43 NE6       30.17F
GRND FRKS AFB  SUNNY     77  58  51 N5        30.18F
DEVILS LAKE    SUNNY     76  52  43 CALM      30.21F
$$

NDZ022-023-025-028>030-036>039-047>053-310100-
SOUTHEAST NORTH DAKOTA

CITY           SKY/WX    TMP DP  RH WIND       PRES   REMARKS
FARGO          SUNNY     77  54  44 N6        30.18S
6HR MIN TEMP:  77; 6HR MAX TEMP:  82;

JAMESTOWN      SUNNY     76  55  48 E6        30.19F
$$





USA.gov is the U.S. government's official web portal to all federal, state and local government web resources and services.